Powrót do katalogu

OCEANSAT 2

AktywnyNaukaPO
NORAD 35931·PAYLOAD·🇮🇳 India

Wystrzelony Sep 23, 2009 z Satish Dhawan Space Centre

Loading…

Następne Przeloty (najbliższe 24 godziny)

TLE

ŚwieżeSource: Space-Track

Epoka: Sep 14, 2026, 15:04 UTC

1 35931U 09051A   26257.62822400 -.00000152  00000-0 -78301-4 0  9995
2 35931  98.2419 235.5836 0015500 345.9051  14.1682 13.99667040891843

Śledź OCEANSAT 2 w czasie rzeczywistym z AllMySat

Download on the App Store